Flag for Germany Weather past 2 weeks in Radebeul, Saxony, Germany

Now
60 °F

Passing clouds.


Feels Like: 60 °F
Forecast: 50 / 71 °F
Wind: 2 mph from West

Location: Dresden-Klotzsche

Current Time: Jul 30, 2015 at 10:44:10 PM

Latest Report: Jul 30, 2015 at 10:00 PM


Visibility: 31 mi

Pressure: 29.98 "Hg

Humidity: 55%

Dew point: 43 °F

Location of RadebeulLocation

Historic Weather in Radebeul — Graph

°F

Radebeul temperature yesterday

Maximum temperature yesterday: 69 °F (at 2:00 PM)
Minimum temperature yesterday: 54 °F (at 10:00 PM)
Average temperature yesterday: 62 °F

Past Weeks' High & Low Weather Summary

 TemperatureHumidityPressure
High92 °F (Jul 17, 6:00 PM)99% (Jul 23, 3:00 AM)30.09 "Hg (Jul 23, 3:00 AM)
Low53 °F (Jul 30, 12:00 AM)22% (Jul 17, 6:00 PM)29.59 "Hg (Jul 27, 3:00 PM)
Average70 °F61%29.87 "Hg
* Reported Jul 15 9:00 PM — Jul 30 9:00 PM, Radebeul, Weather by CustomWeather, © 2015

Note: Actual official high and low records may vary slightly from our data, if they occured in-between our weather recording intervals... More about our weather records

Advertising

Radebeul weather history for previous 24 hours

 ConditionsComfort  
Time TempWeatherWind HumidityBarometerVisibility
9:00 PM
Thu, Jul 30
61 °FPassing clouds.3 mph50%29.96 "Hg34 mi
8:00 PM65 °FScattered clouds.5 mph40%29.94 "Hg37 mi
7:00 PM65 °FPartly sunny.7 mph39%29.93 "Hg37 mi
6:00 PM67 °FPartly sunny.8 mph37%29.92 "Hg37 mi
4:00 PM66 °FPartly sunny.7 mph41%29.91 "Hg37 mi
3:00 PM66 °FPartly sunny.9 mph41%29.91 "Hg37 mi
2:00 PM67 °FScattered clouds.9 mph39%29.91 "Hg37 mi
1:00 PM65 °FScattered clouds.9 mph41%29.90 "Hg37 mi
12:00 PM64 °FScattered clouds.9 mph41%29.90 "Hg37 mi
10:00 AM62 °FPassing clouds.10 mph49%29.89 "Hg37 mi
9:00 AM59 °FPassing clouds.9 mph57%29.90 "Hg37 mi
8:00 AM57 °FSunny.7 mph60%29.90 "Hg37 mi
7:00 AM54 °FSunny.7 mph66%29.89 "Hg37 mi
4:00 AM54 °FClear.6 mph70%29.88 "Hg37 mi
3:00 AM54 °FClear.6 mph69%29.87 "Hg37 mi
2:00 AM54 °FClear.7 mph72%29.86 "Hg37 mi
1:00 AM53 °FClear.6 mph76%29.86 "Hg37 mi
12:00 AM53 °FClear.6 mph77%29.85 "Hg37 mi
10:00 PM
Wed, Jul 29
54 °FPassing clouds.3 mph79%29.83 "Hg34 mi
Weather by CustomWeather, © 2015

See weather overviewHow to use our weather pages